Regional Weather Roundup
Issued by NWS Upton, NY

Current Version | Previous Version | Text Only | Print | Product List | Glossary Off
Versions: 1 2 3 4 5 6 7 8 9 10 11 12 13 14 15 16 17 18 19 20 21 22 23 24 25 26 27 28 29 30 31 32 33 34 35 36 37 38 39 40 41 42 43 44 45 46 47 48 49 50
000 ASUS41 KOKX 291007 RWROKX REGIONAL WEATHER ROUNDUP NATIONAL WEATHER SERVICE NEW YORK NY 600 AM EDT SUN MAR 29 2015 NOTE: "FAIR" INDICATES FEW OR NO CLOUDS BELOW 12,000 FEET WITH NO SIGNIFICANT WEATHER AND/OR OBSTRUCTIONS TO VISIBILITY. NYZ071-072-176-178-NJZ106-104-291100- NEW YORK CITY METRO AREA CITY SKY/WX TMP DP RH WIND PRES REMARKS CENTRAL PARK CLOUDY 26 5 40 VRB6 30.21R WCI 19 LAGUARDIA APRT MOCLDY 28 6 39 NW13 30.19R WCI 17 KENNEDY INTL MOCLDY 27 10 49 NW14 30.20R WCI 16 NEWARK/LIBERTY CLOUDY 26 3 37 NW10 30.21R WCI 16 BRNX BOT. GARD N/A N/A N/A N/A E8 30.20S TETERBORO CLOUDY 26 5 40 NW9 30.20R WCI 17 $$ NYZ177-179-078>081-291100- LONG ISLAND NEW YORK CITY SKY/WX TMP DP RH WIND PRES REMARKS FARMINGDALE PTCLDY 26 8 46 N9 30.17R WCI 17 ISLIP CLOUDY 26 13 57 N14 30.14R WCI 14 SHIRLEY CLOUDY 26 16 65 N8 30.16R WCI 18 WESTHAMPTON CLOUDY 26 15 63 N8 30.15R WCI 18 MONTAUK POINT N/A 28 14 55 N14G22 30.13R WCI 17 $$ NYZ052-065-067-291100- HUDSON VALLEY CITY SKY/WX TMP DP RH WIND PRES REMARKS WHITE PLAINS MOCLDY 23 5 46 NW12 30.15R WCI 12 NEWBURGH CLEAR 19 10 68 W6 30.19R WCI 11 MONTGOMERY CLEAR 20 4 50 VRB3 30.18R POUGHKEEPSIE CLEAR 20 9 62 CALM 30.20R ALBANY CLEAR 13 5 70 CALM 30.21R $$ NJZ001-105-106-008-010-013-015-019>022-104-291100- NEW JERSEY CITY SKY/WX TMP DP RH WIND PRES REMARKS NEWARK/LIBERTY CLOUDY 26 3 37 NW10 30.21R WCI 16 TETERBORO CLOUDY 26 5 40 NW9 30.20R WCI 17 CALDWELL CLOUDY 24 3 40 NW5 30.22R WCI 18 MORRISTOWN MOCLDY 27 5 39 N7 30.21R WCI 19 SOMERVILLE CLOUDY 26 5 40 NW7 30.21R WCI 18 SUSSEX CLEAR 21 6 52 NW8 30.20R WCI 11 ANDOVER N/A 20 7 57 N5 30.20R WCI 13 TRENTON CLEAR 24 6 46 NW7 30.21R WCI 16 MILLVILLE CLEAR 25 7 46 NW10 30.24R WCI 15 ATLANTIC CITY MOCLDY 26 7 44 NW14 30.22R WCI 14 WRIGHTSTOWN CLEAR 25 6 45 NW12 30.19R WCI 14 TOMS RIVER PTCLDY 25 9 50 NW5 30.21R WCI 19 BELMAR CLEAR 25 9 50 NW12 30.19R WCI 14 $$ PAZ047>061-062-071-291100- EASTERN PENNSYLVANIA CITY SKY/WX TMP DP RH WIND PRES REMARKS PHILADELPHIA PTCLDY 26 5 40 NW10 30.26R WCI 16 ALLENTOWN CLEAR 22 6 50 NW7 30.23R WCI 13 SCRANTON CLEAR 18 6 59 NW6 30.21R WCI 10 $$ CTZ002-004>006-009-010-012-RIZ004-006-007-MAZ004-011-015-291100- SOUTHERN NEW ENGLAND IN CT CITY SKY/WX TMP DP RH WIND PRES REMARKS BRADLEY INTL MOCLDY 25 7 46 NW8 30.15R WCI 16 HARTFORD PTCLDY 25 8 48 N8 30.16R WCI 16 DANBURY PTCLDY 22 1 40 NW9 30.17R WCI 12 WTRBRY/OXFORD MOCLDY 21 1 42 N12 30.13R WCI 9 BRIDGEPORT CLOUDY 26 10 50 N7 30.17R WCI 18 MERIDEN CLOUDY 25 9 50 NW9 30.16R WCI 15 NEW HAVEN CLOUDY 27 11 51 NW12 30.15R WCI 17 CHESTER PTSUNNY 27 12 54 N10G18 30.12R WCI 17 GROTON CLOUDY 25 12 58 N13 30.12R WCI 14 WILLIMANTIC CLOUDY 24 8 50 N9 30.14R WCI 14 IN RI CITY SKY/WX TMP DP RH WIND PRES REMARKS PROVIDENCE MOCLDY 24 11 57 N10 30.12R WCI 14 BLOCK ISLAND CLOUDY 27 16 63 N13G18 30.10R WCI 16 WESTERLY CLOUDY 23 16 74 N10 30.12R WCI 12 IN MA CITY SKY/WX TMP DP RH WIND PRES REMARKS BOSTON CLOUDY 26 7 44 NW13 30.13R WCI 15 WORCESTER PTCLDY 20 3 48 NW9 30.07R WCI 9 WESTFIELD PTCLDY 23 7 50 NW7 30.15R WCI 15 PROVINCETOWN PTCLDY 30 16 55 N13G20 30.10R WCI 20 NANTUCKET CLOUDY 31 23 72 N16 30.07R WCI 20 $$ ANZ330-335-338-340-345-350-353-355-291100- COASTAL MARINE OBSERVATIONS STATION/POSITION TIME SKY/WX TEMP WIND PRES VSBY WAVE AIR SEA DIR/SP/G HT/PER (UTC) (F) (DEG/KT/KT) (MB) (MI) (FT/S) NY HARB ENTRANCE 0950 29 38 330/ 17/ 21 1021.4 3/11 4S FIRE IS 0903 37 N/A 4/11 20S FIRE ISLAND 0850 38 1020.3 5/ 5 23SW MTP 0950 N/A 7/10 HUDSON CANYON NOT AVBL EXECUTION ROCKS NOT AVBL WESTERN LI SOUND NOT AVBL CENTRAL LI SOUND NOT AVBL EASTERN LI SOUND NOT AVBL ROBBINS REEF NOT AVBL $$ >>>>>>>>>>>>>>>>>>>>>>>>>>>> KEY <<<<<<<<<<<<<<<<<<<<<<<<<<< > < > SKY/WX - SKY CONDITION/PRESENT WEATHER < > TMP - TEMPERATURE IN FAHRENHEIT < > DP - DEWPOINT IN FAHRENHEIT < > RH - RELATIVE HUMIDITY IN PERCENT < > WIND - DIRECTION AND SPEED IN MPH < > PRES - MEAN SEA LEVEL PRESSURE IN INCHES OF HG < > WCI - WIND CHILL INDEX < > VSB - VISIBILITY IN MILES < > HX - HEAT INDEX < > TC - TEMPERATURE IN CELSIUS < > VRB - VARIABLE WIND DIRECTION < > < >>>>>>>>>>>>>>>>>>>>>>>>>>>> KEY <<<<<<<<<<<<<<<<<<<<<<<<<<<

USA.gov is the U.S. government's official web portal to all federal, state and local government web resources and services.